Location: Cuzcurrita-R�o Tir�n
(42.5415°N, 2.9642°W)
Time: 21:32:50
(UTC+00:00)

USA 267 - Pass Details

Date: 17 January 2021
Orbit: 1099 x 1108 km, 123.0° (Epoch: 03 March)

Event Time Altitude Azimuth Distance (km) Brightness Sun altitude
Exits shadow 18:29:58 21° 71° (ENE) 2,257 4.3 -15.1°
Maximum altitude 18:33:58 42° 130° (SE) 1,527 3.7 -15.9°
Drops below altitude 10° 18:40:04 10° 199° (SSW) 2,952 5.9 -17.0°
Sets 18:42:42 0° 206° (SSW) 3,908 6.7 -17.4°
